#timestamp,LO_Frequency,Hit,StdDev 
1590008415.2,286046999.3,N
1590008435.0,286047002.4,N
1590008435.9,286047002.4,N
1590008455.8,286047005.9,N
1590008475.6,286047001.3,N
1590008495.4,286047003.6,N
1590008515.3,286047002.6,N
1590008535.1,286047008.5,N
1590008555.9,286047009.9,N
1590008575.7,286047006.5,N
1590008595.5,286047006.8,N
1590008615.4,286047008.2,N
1590008635.2,286047012.3,Y
1590008655.1,286047007.8,P
1590008656.0,286047007.8,P
1590008675.8,286047005.8,N
1590008695.6,286047002.6,N
1590008715.5,286047007.2,Y
1590008735.3,286047001.7,P
1590008755.1,286047005.9,P
1590008775.9,286047007.2,P
1590008795.7,286047010.3,Y
1590008815.6,286047005.7,P
1590008835.4,286047004.2,P
1590008855.2,286047004.6,P
1590008875.1,286047006.6,Y
1590008876.0,286047006.6,P
1590008895.8,286047007.5,P
1590008915.7,286047010.8,P
1590008935.5,286047006.8,Y
1590008955.3,286047002.0,P
1590008975.2,286047007.1,N
1590008995.0,286047006.3,N
1590008995.9,286047006.3,N
1590009015.8,286047011.9,Y
1590009035.6,286047005.7,P
1590009055.4,286047009.0,P
1590009075.3,286047013.9,P
1590009095.1,286047012.7,Y
1590009115.8,286047005.1,P
1590009135.7,286047002.5,N
1590009155.5,286047003.5,N
1590009175.4,286047005.1,N
1590009195.2,286047003.2,N
1590009215.0,286047006.2,Y
1590009215.9,286047006.2,P
1590009235.8,286047002.9,P
1590009255.6,286047004.1,P
1590009275.5,286047003.4,N
1590009295.3,286047007.6,Y
1590009315.1,286047002.6,P
1590009335.9,286047002.8,P
1590009355.7,286047000.3,N
1590009375.5,286047000.1,N
1590009395.4,286047003.2,N
1590009415.2,286047006.5,Y
1590009435.1,286047008.1,P
1590009436.0,286047008.1,N
1590009455.8,286047006.5,N
1590009475.6,286047006.4,N
1590009495.5,286047010.6,Y
1590009515.3,286047005.1,P
1590009535.2,286047007.3,P
1590009555.9,286047009.8,P
1590009575.7,286047013.9,Y
1590009595.6,286047004.6,P
1590009615.4,286047006.0,P
1590009635.2,286047005.9,P
1590009655.1,286047005.8,Y
1590009656.0,286047005.8,P
1590009675.8,286046999.5,P
1590009695.7,286046995.3,N
1590009715.6,286046997.9,N
1590009735.4,286046997.4,N
1590009755.2,286046997.0,N
1590009775.1,286047000.0,N
1590009776.0,286047000.0,N
1590009795.8,286047002.0,N
1590009815.7,286047001.5,N
1590009835.5,286047005.5,N
1590009855.3,286047003.8,N
1590009875.2,286047003.7,N
1590009895.0,286047004.5,N
1590009895.9,286047004.5,N
1590009915.8,286047008.5,N
1590009935.6,286047008.3,N
1590009955.4,286047009.6,N
1590009975.3,286047010.2,N
1590009995.1,286047008.1,N
1590010015.8,286047008.4,N
1590010035.7,286047008.5,N
1590010055.5,286047007.7,N
1590010075.4,286047013.7,Y
1590010095.2,286047010.5,P
1590010115.0,286047010.9,P
1590010115.9,286047010.9,P
1590010135.8,286047013.1,Y
1590010155.6,286047004.2,P
1590010175.5,286047005.9,N
1590010195.3,286047005.9,N
1590010215.1,286047008.7,Y
1590010235.9,286046998.5,P
1590010255.7,286047001.1,N
1590010275.6,286046999.0,N
1590010295.4,286046997.0,N
1590010315.2,286046999.1,N
1590010335.1,286046997.0,N
1590010336.0,286046997.0,N
1590010355.8,286046998.3,N
1590010375.7,286046998.5,N
1590010395.5,286047003.1,N
1590010415.3,286047001.9,N
1590010435.2,286047002.2,N
1590010455.0,286047002.1,N
1590010455.9,286047002.1,N
1590010475.7,286047002.6,N
1590010495.6,286047001.1,N
1590010515.4,286047000.9,N
1590010535.3,286047002.7,N
1590010555.1,286047000.6,N
1590010575.8,286046999.4,N
1590010595.7,286046998.1,N
1590010615.5,286046998.1,N
1590010635.4,286047000.9,N
1590010655.2,286046998.4,N
1590010675.0,286046999.0,N
1590010675.9,286046999.0,N
1590010695.8,286046999.8,N
1590010715.6,286047003.8,N
1590010735.4,286047001.4,N
1590010755.3,286047003.1,N
1590010775.1,286047003.1,N
1590010795.9,286047003.5,N
1590010815.7,286047003.9,N
1590010835.5,286047007.4,Y
1590010855.4,286047005.4,P
1590010875.2,286047003.3,N
1590010895.0,286047007.4,P
1590010895.9,286047007.4,N
1590010915.8,286047006.2,N
1590010935.6,286047008.5,Y
1590010955.5,286047011.9,P
1590010975.3,286047005.3,N
1590010995.1,286047005.1,N
1590011015.9,286047007.5,N
1590011035.7,286047008.6,Y
1590011055.6,286047002.5,P
1590011075.4,286047002.4,N
1590011095.2,286047001.0,N
1590011115.1,286046999.3,N
1590011116.0,286046999.3,N
1590011135.8,286047000.6,N
1590011155.6,286047005.1,N
1590011175.5,286047004.5,N
1590011195.3,286047006.8,N
1590011215.2,286047004.9,N
1590011235.9,286047008.7,Y
1590011255.7,286047006.0,P
1590011275.6,286047003.7,N
1590011295.4,286047007.6,P
1590011315.2,286047006.4,Y
1590011335.1,286047004.0,P
1590011336.0,286047004.0,P
1590011355.8,286047004.5,P
1590011375.7,286047006.5,Y
1590011395.5,286047002.0,P
1590011415.3,286047000.4,N
1590011435.2,286047002.4,N
1590011455.0,286047001.0,N
1590011455.9,286047001.0,N
1590011475.7,286047000.5,N
1590011495.6,286047002.6,N
1590011515.4,286046999.2,N
1590011535.3,286046998.1,N
1590011555.1,286046998.2,N
1590011556.0,286046998.2,N
1590011575.8,286047003.4,N
1590011595.7,286047002.2,N
1590011615.5,286047003.7,N
1590011635.3,286047003.2,N
1590011655.2,286047001.5,N
1590011675.0,286047001.6,N
1590011675.9,286047001.6,N
1590011695.8,286047005.7,Y
1590011715.6,286047000.3,P
1590011735.4,286046999.0,N
1590011755.3,286046999.4,N
1590011775.1,286046999.5,N
1590011795.8,286046995.4,Y
1590011815.7,286046997.2,P
1590011835.5,286047001.0,N
1590011855.4,286046998.4,N
1590011875.2,286046998.7,N
1590011895.0,286046996.9,N
1590011895.9,286046996.9,N
1590011915.8,286046999.1,N
1590011935.6,286047000.4,N
1590011955.5,286047005.8,Y
1590011975.3,286047003.2,P
1590011995.1,286047005.6,N
